{"data":{"norad_id":61856,"intl_designator":"2024-202M","name":"STARLINK-32483","alt_names":[],"object_type":"PAYLOAD","status":"ACTIVE","operator":null,"country":"US","launch_date":"2024-11-07","launch_site_code":"AFETR","launch_vehicle":null,"mission":null,"orbit_class":"UNKNOWN","rcs_meters":null,"size_class":null,"mass_kg":null,"dimensions":null,"purposes":["comms"],"wikipedia_slug":null,"has_3d_model":false,"image_url":null,"decayed_at":null,"tle_current":{"epoch":"2026-09-21T06:58:19.180128Z","epoch_age_seconds":120269,"freshness":"FRESH","line1":"1 61856U 24202M   26264.29049977 -.00000226  00000+0  13051-5 0  9998","line2":"2 61856  42.9999 213.2159 0000744 273.5558  86.5209 15.27578207105250","mean_motion":15.27578207,"eccentricity":7.44e-5,"inclination_deg":42.9999,"raan_deg":213.2159,"arg_perigee_deg":273.5558,"mean_anomaly_deg":86.5209,"bstar":1.3051e-6,"rev_number":10525,"period_min":94.266859359561,"perigee_km":482.54399228694,"apogee_km":483.56493757692,"semimajor_km":6861.1914649319,"source":"CELESTRAK","updated_at":"2026-09-22T09:00:49.441920Z"}}}